• In United Kingdom
  • List of Countries
  • For 7 days
  • Water Temperature
  • Satellite Maps
  • Weather Map
  • Weather Widgets
  • user-avatar
    Login

    Hourly Weather Neuquén

    Today, 25 November, Saturday

    Time Temperature Precipitation Wind Pressure Humidity
    00:00 +20°C° 0 mm 8 mps 733 mmHg 24%
    01:00 +18°C° 0 mm 7 mps 733 mmHg 27%
    02:00 +18°C° 0 mm 7 mps 733 mmHg 29%
    03:00 +17°C° 0 mm 6 mps 734 mmHg 31%
    04:00 +17°C° 0 mm 5 mps 734 mmHg 33%
    05:00 +19°C° 0 mm 5 mps 734 mmHg 31%
    06:00 +21°C° 0 mm 5 mps 735 mmHg 29%
    07:00 +22°C° 0 mm 5 mps 735 mmHg 27%
    08:00 +23°C° 0 mm 4 mps 735 mmHg 25%
    09:00 +26°C° 0 mm 3 mps 735 mmHg 24%
    10:00 +27°C° 0 mm 3 mps 735 mmHg 22%
    11:00 +28°C° 0 mm 3 mps 734 mmHg 20%
    12:00 +29°C° 0 mm 3 mps 734 mmHg 19%
    13:00 +30°C° 0 mm 3 mps 733 mmHg 18%
    14:00 +32°C° 0 mm 4 mps 733 mmHg 17%
    15:00 +32°C° 0 mm 4 mps 732 mmHg 16%
    16:00 +33°C° 0 mm 4 mps 731 mmHg 15%
    17:00 +31°C° 0 mm 3 mps 731 mmHg 16%
    18:00 +30°C° 0 mm 3 mps 731 mmHg 17%
    19:00 +29°C° 0 mm 2 mps 731 mmHg 18%
    20:00 +29°C° 0 mm 2 mps 731 mmHg 18%
    21:00 +28°C° 0 mm 3 mps 731 mmHg 18%
    22:00 +28°C° 0 mm 3 mps 731 mmHg 19%
    23:00 +27°C° 0 mm 4 mps 730 mmHg 20%

    Tomorrow, 26 November, Sunday

    Time Temperature Precipitation Wind Pressure Humidity
    00:00 +27°C° 0 mm 4 mps 729 mmHg 21%
    01:00 +26°C° 0 mm 4 mps 729 mmHg 23%
    02:00 +25°C° 0 mm 4 mps 729 mmHg 26%
    03:00 +23°C° 0 mm 4 mps 728 mmHg 29%
    04:00 +22°C° 0 mm 4 mps 728 mmHg 32%
    05:00 +24°C° 0 mm 6 mps 728 mmHg 28%
    06:00 +26°C° 0 mm 7 mps 728 mmHg 24%
    07:00 +27°C° 0 mm 9 mps 728 mmHg 19%
    08:00 +29°C° 0 mm 9 mps 729 mmHg 16%
    09:00 +31°C° 0 mm 10 mps 729 mmHg 13%
    10:00 +33°C° 0 mm 11 mps 729 mmHg 10%
    11:00 +33°C° 0 mm 11 mps 729 mmHg 10%
    12:00 +33°C° 0 mm 11 mps 728 mmHg 10%
    13:00 +34°C° 0 mm 12 mps 728 mmHg 9%
    14:00 +34°C° 0 mm 12 mps 728 mmHg 9%
    15:00 +33°C° 0 mm 12 mps 728 mmHg 9%
    16:00 +33°C° 0 mm 12 mps 728 mmHg 9%
    17:00 +32°C° 0 mm 11 mps 729 mmHg 10%
    18:00 +29°C° 0 mm 9 mps 730 mmHg 11%
    19:00 +28°C° 0 mm 8 mps 731 mmHg 12%
    20:00 +26°C° 0 mm 8 mps 733 mmHg 15%
    21:00 +24°C° 0 mm 8 mps 734 mmHg 17%
    22:00 +22°C° 0 mm 8 mps 736 mmHg 20%
    23:00 +21°C° 0 mm 8 mps 737 mmHg 20%

    Day after tomorrow, 27 November, Monday

    Time Temperature Precipitation Wind Pressure Humidity
    00:00 +18°C° 0 mm 8 mps 738 mmHg 20%
    01:00 +17°C° 0 mm 8 mps 738 mmHg 19%
    02:00 +16°C° 0 mm 7 mps 739 mmHg 22%
    03:00 +15°C° 0 mm 7 mps 740 mmHg 25%
    04:00 +14°C° 0 mm 6 mps 741 mmHg 28%
    05:00 +15°C° 0 mm 6 mps 741 mmHg 27%
    06:00 +15°C° 0 mm 6 mps 742 mmHg 27%
    07:00 +16°C° 0 mm 6 mps 742 mmHg 26%
    08:00 +17°C° 0 mm 6 mps 742 mmHg 24%
    09:00 +20°C° 0 mm 6 mps 742 mmHg 21%
    10:00 +21°C° 0 mm 6 mps 741 mmHg 19%
    11:00 +22°C° 0 mm 7 mps 741 mmHg 18%
    12:00 +23°C° 0 mm 7 mps 740 mmHg 16%
    13:00 +24°C° 0 mm 7 mps 739 mmHg 15%
    14:00 +24°C° 0 mm 7 mps 738 mmHg 15%
    15:00 +26°C° 0 mm 7 mps 738 mmHg 15%
    16:00 +26°C° 0 mm 7 mps 737 mmHg 14%
    17:00 +24°C° 0 mm 7 mps 737 mmHg 15%
    18:00 +24°C° 0 mm 6 mps 737 mmHg 16%
    19:00 +23°C° 0 mm 6 mps 737 mmHg 17%
    20:00 +22°C° 0 mm 6 mps 737 mmHg 17%
    21:00 +21°C° 0 mm 6 mps 737 mmHg 18%
    22:00 +21°C° 0 mm 6 mps 737 mmHg 19%
    23:00 +20°C° 0 mm 6 mps 737 mmHg 19%

    28 November, Tuesday

    Time Temperature Precipitation Wind Pressure Humidity
    00:00 +20°C° 0 mm 6 mps 737 mmHg 20%
    01:00 +19°C° 0 mm 6 mps 736 mmHg 21%
    02:00 +17°C° 0 mm 6 mps 736 mmHg 23%
    03:00 +17°C° 0 mm 6 mps 736 mmHg 24%
    04:00 +16°C° 0 mm 6 mps 735 mmHg 26%
    05:00 +18°C° 0 mm 7 mps 735 mmHg 25%
    06:00 +20°C° 0 mm 8 mps 735 mmHg 24%
    07:00 +22°C° 0 mm 9 mps 735 mmHg 24%
    08:00 +24°C° 0 mm 9 mps 735 mmHg 22%
    09:00 +27°C° 0 mm 8 mps 735 mmHg 20%
    10:00 +29°C° 0 mm 8 mps 734 mmHg 18%
    11:00 +31°C° 0 mm 8 mps 734 mmHg 16%
    12:00 +33°C° 0 mm 8 mps 733 mmHg 15%
    13:00 +34°C° 0 mm 8 mps 732 mmHg 13%
    14:00 +35°C° 0 mm 7 mps 731 mmHg 13%
    15:00 +35°C° 0 mm 6 mps 731 mmHg 12%
    16:00 +35°C° 0 mm 5 mps 730 mmHg 12%
    17:00 +34°C° 0 mm 5 mps 730 mmHg 13%
    18:00 +33°C° 0 mm 5 mps 730 mmHg 15%
    19:00 +32°C° 0 mm 5 mps 730 mmHg 16%
    20:00 +30°C° 0 mm 5 mps 731 mmHg 19%
    21:00 +29°C° 0 mm 6 mps 731 mmHg 22%
    22:00 +28°C° 0 mm 6 mps 731 mmHg 25%
    23:00 +28°C° 0 mm 6 mps 731 mmHg 27%

    29 November, Wednesday

    Time Temperature Precipitation Wind Pressure Humidity
    00:00 +27°C° 0 mm 5 mps 731 mmHg 30%
    01:00 +26°C° 0 mm 5 mps 731 mmHg 32%
    02:00 +26°C° 0 mm 5 mps 731 mmHg 32%
    03:00 +25°C° 0 mm 5 mps 731 mmHg 32%
    04:00 +25°C° 0 mm 4 mps 731 mmHg 32%
    05:00 +27°C° 0 mm 6 mps 731 mmHg 27%
    06:00 +28°C° 0 mm 7 mps 732 mmHg 22%
    07:00 +31°C° 0 mm 8 mps 732 mmHg 18%
    08:00 +32°C° 0 mm 7 mps 732 mmHg 16%
    09:00 +33°C° 0 mm 6 mps 732 mmHg 15%
    10:00 +35°C° 0 mm 5 mps 732 mmHg 13%
    11:00 +35°C° 0 mm 5 mps 732 mmHg 13%
    12:00 +36°C° 0 mm 5 mps 731 mmHg 12%
    13:00 +36°C° 0 mm 5 mps 731 mmHg 11%
    14:00 +36°C° 0 mm 4 mps 731 mmHg 11%
    15:00 +36°C° 0 mm 4 mps 730 mmHg 11%
    16:00 +36°C° 0 mm 4 mps 730 mmHg 11%
    17:00 +34°C° 0 mm 5 mps 731 mmHg 13%
    18:00 +33°C° 0 mm 6 mps 731 mmHg 16%
    19:00 +30°C° 0 mm 7 mps 732 mmHg 19%
    20:00 +28°C° 0 mm 7 mps 732 mmHg 22%
    21:00 +26°C° 0 mm 7 mps 733 mmHg 26%
    22:00 +24°C° 0 mm 7 mps 733 mmHg 30%
    23:00 +22°C° 0 mm 7 mps 733 mmHg 33%

    30 November, Thursday

    Time Temperature Precipitation Wind Pressure Humidity
    00:00 +21°C° 0 mm 7 mps 733 mmHg 36%
    01:00 +20°C° 0 mm 8 mps 733 mmHg 39%
    02:00 +18°C° 0 mm 7 mps 733 mmHg 43%
    03:00 +17°C° 0 mm 7 mps 733 mmHg 46%
    04:00 +16°C° 0 mm 6 mps 733 mmHg 49%
    05:00 +17°C° 0 mm 6 mps 733 mmHg 48%
    06:00 +17°C° 0 mm 5 mps 734 mmHg 47%
    07:00 +19°C° 0 mm 5 mps 734 mmHg 46%
    08:00 +21°C° 0 mm 5 mps 733 mmHg 41%
    09:00 +22°C° 0 mm 4 mps 733 mmHg 36%
    10:00 +25°C° 0 mm 4 mps 733 mmHg 31%
    11:00 +26°C° 0 mm 4 mps 732 mmHg 28%
    12:00 +27°C° 0 mm 4 mps 731 mmHg 25%
    13:00 +29°C° 0 mm 4 mps 731 mmHg 22%
    14:00 +29°C° 0 mm 4 mps 730 mmHg 21%
    15:00 +30°C° 0 mm 4 mps 730 mmHg 21%
    16:00 +30°C° 0 mm 4 mps 729 mmHg 20%
    17:00 +29°C° 0 mm 4 mps 730 mmHg 21%
    18:00 +29°C° 0 mm 4 mps 730 mmHg 23%
    19:00 +28°C° 0 mm 4 mps 730 mmHg 24%
    20:00 +27°C° 0 mm 5 mps 730 mmHg 29%
    21:00 +26°C° 0 mm 6 mps 731 mmHg 34%
    22:00 +24°C° 0 mm 7 mps 731 mmHg 39%
    23:00 +23°C° 0.1 mm 7 mps 731 mmHg 46%
    Show more